GW4457 Weather Reports


Display with metric or nautical units.
time (UTC)temp
F
wind
direction
speed
MPH
gust
MPH
rain 1hr
in
rain 24hr
in
rain mn
in
humidity
%
barometer
mb
20260903093818 79 106 5.0 10.0 0.00 0.00 0.00 78 1019.4
20260903093314 79 108 6.0 8.0 0.00 0.00 0.00 78 1019.4
20260903092814 79 74 5.0 9.0 0.00 0.00 0.00 78 1019.4
20260903092308 79 62 5.0 8.0 0.00 0.00 0.00 77 1019.4
20260903091807 79 76 5.0 8.0 0.00 0.00 0.00 77 1019.5
20260903091301 79 96 6.0 7.0 0.00 0.00 0.00 77 1019.3
20260903090757 79 100 7.0 8.0 0.00 0.00 0.00 77 1019.2
20260903090256 79 90 4.0 8.0 0.00 0.00 0.00 77 1019.3
20260903085755 79 57 5.0 10.0 0.00 0.00 0.00 77 1019.4
20260903085250 79 90 5.0 8.0 0.00 0.00 0.00 77 1019.3
20260903084748 79 72 4.0 8.0 0.00 0.00 0.00 77 1019.4
20260903084243 79 72 5.0 9.0 0.00 0.00 0.00 77 1019.3
20260903083738 79 92 9.0 9.0 0.00 0.00 0.00 78 1019.4
20260903083238 79 66 4.0 8.0 0.00 0.00 0.00 77 1019.2
20260903082737 79 88 7.0 9.0 0.00 0.00 0.00 78 1019.4
20260903082234 79 75 6.0 9.0 0.00 0.00 0.00 78 1019.4
20260903081734 79 24 6.0 7.0 0.00 0.00 0.00 78 1019.4
20260903081229 79 62 5.0 7.0 0.00 0.00 0.00 78 1019.3
20260903080725 79 64 5.0 8.0 0.00 0.00 0.00 78 1019.4
20260903080223 79 62 5.0 9.0 0.00 0.00 0.00 77 1019.3
20260903075722 79 55 5.0 7.0 0.00 0.00 0.00 78 1019.2
20260903075217 79 160 2.0 7.0 0.00 0.00 0.00 77 1019.2
20260903074716 79 69 4.0 7.0 0.00 0.00 0.00 77 1019.1
20260903074212 79 72 4.0 9.0 0.00 0.00 0.00 77 1019.3
20260903073707 79 89 4.0 7.0 0.00 0.00 0.00 76 1019.2
20260903073202 79 26 6.0 9.0 0.00 0.00 0.00 76 1019.2
20260903072658 79 50 5.0 8.0 0.00 0.00 0.00 77 1019.2
20260903072154 79 8 4.0 7.0 0.00 0.00 0.00 76 1019.3
20260903071650 79 33 4.0 10.0 0.00 0.00 0.00 77 1019.4
20260903071145 79 88 6.0 7.0 0.00 0.00 0.00 77 1019.3
20260903070640 79 70 6.0 9.0 0.00 0.00 0.00 77 1019.1
20260903070136 79 96 4.0 9.0 0.00 0.00 0.00 77 1019.3
20260903065635 79 72 6.0 8.0 0.00 0.00 0.00 78 1019.4
20260903065130 79 88 4.0 6.0 0.00 0.00 0.00 78 1019.4
20260903064629 79 63 6.0 7.0 0.00 0.00 0.00 78 1019.5
20260903064124 79 77 5.0 8.0 0.00 0.00 0.00 78 1019.4
20260903063620 79 70 3.0 8.0 0.00 0.00 0.00 79 1019.4
20260903063115 79 80 3.0 7.0 0.00 0.00 0.00 79 1019.4
20260903062611 79 73 5.0 7.0 0.00 0.00 0.00 80 1019.4
20260903062106 79 122 5.0 8.0 0.00 0.00 0.00 80 1019.5
20260903061601 79 106 4.0 7.0 0.00 0.00 0.00 80 1019.5
20260903061100 79 89 6.0 9.0 0.00 0.00 0.00 80 1019.5
20260903060600 79 68 5.0 8.0 0.00 0.00 0.00 80 1019.6
20260903060055 79 62 2.0 9.0 0.00 0.00 0.00 81 1019.4
20260903055553 79 78 4.0 6.0 0.00 0.00 0.00 81 1019.5
20260903055052 79 127 5.0 8.0 0.00 0.00 0.00 82 1019.6
20260903054547 79 122 4.0 8.0 0.00 0.00 0.00 82 1019.7
20260903054043 79 78 7.0 9.0 0.00 0.00 0.00 82 1019.8
20260903053538 79 141 4.0 7.0 0.00 0.00 0.00 82 1019.7
20260903053035 79 155 3.0 9.0 0.00 0.00 0.00 83 1019.7
20260903052530 79 56 4.0 7.0 0.00 0.00 0.00 83 1019.8
20260903052026 79 75 4.0 6.0 0.00 0.00 0.00 83 1019.9
20260903051525 79 83 6.0 7.0 0.00 0.00 0.00 83 1020.0
20260903051021 79 70 5.0 8.0 0.00 0.00 0.00 83 1020.0
20260903050520 79 95 5.0 7.0 0.00 0.00 0.00 84 1019.9
20260903050016 78 85 3.0 8.0 0.00 0.00 0.00 84 1020.1
20260903045515 79 59 2.0 7.0 0.00 0.00 0.00 84 1020.3
20260903045012 79 334 2.0 6.0 0.00 0.00 0.00 84 1020.2
20260903044508 79 75 4.0 6.0 0.00 0.00 0.00 84 1020.3
20260903044003 79 76 2.0 4.0 0.00 0.00 0.00 84 1020.4
20260903043459 79 90 4.0 6.0 0.00 0.00 0.00 84 1020.3
20260903042957 79 75 5.0 6.0 0.00 0.00 0.00 83 1020.7
20260903042453 79 85 4.0 6.0 0.00 0.00 0.00 83 1020.6
20260903041948 79 112 1.0 3.0 0.00 0.00 0.00 82 1020.6
20260903041445 79 99 2.0 3.0 0.00 0.00 0.00 83 1020.6
20260903040940 79 77 2.0 4.0 0.00 0.00 0.00 82 1020.8
20260903040439 79 90 2.0 4.0 0.00 0.00 0.00 82 1020.6
20260903035935 79 64 3.0 6.0 0.00 0.00 0.00 83 1020.6
20260903035431 79 92 2.0 4.0 0.00 0.00 0.00 82 1020.8
20260903034926 79 105 4.0 4.0 0.00 0.00 0.00 83 1021.1
20260903034426 79 101 4.0 6.0 0.00 0.00 0.00 83 1020.8
20260903033921 79 78 3.0 6.0 0.00 0.00 0.00 82 1020.9
20260903033416 79 90 3.0 4.0 0.00 0.00 0.00 82 1021.0
20260903032911 79 108 3.0 6.0 0.00 0.00 0.00 82 1020.9
20260903032408 80 69 4.0 4.0 0.00 0.00 0.00 81 1021.0
20260903031907 80 118 3.0 6.0 0.00 0.00 0.00 81 1020.9
20260903031407 80 129 5.0 6.0 0.00 0.00 0.00 81 1021.2
20260903030902 80 80 2.0 6.0 0.00 0.00 0.00 81 1021.0
20260903030358 80 91 4.0 4.0 0.00 0.00 0.00 81 1021.0
20260903025854 80 100 2.0 4.0 0.00 0.00 0.00 81 1021.0
20260903025349 80 78 2.0 4.0 0.00 0.00 0.00 81 1021.1
20260903024844 80 92 4.0 6.0 0.00 0.00 0.00 81 1020.9
20260903024344 80 69 4.0 4.0 0.00 0.00 0.00 82 1020.8
20260903023839 79 202 2.0 3.0 0.00 0.00 0.00 82 1021.0
20260903023334 79 90 3.0 3.0 0.00 0.00 0.00 82 1021.0
20260903022830 80 189 1.0 4.0 0.00 0.00 0.00 82 1021.0
20260903022329 79 60 4.0 4.0 0.00 0.00 0.00 82 1021.0
20260903021822 80 91 3.0 4.0 0.00 0.00 0.00 82 1021.0
20260903021318 80 105 3.0 4.0 0.00 0.00 0.00 82 1020.7
20260903020818 80 100 3.0 7.0 0.00 0.00 0.00 82 1020.8
20260903020313 80 88 5.0 6.0 0.00 0.00 0.00 82 1020.7
20260903015808 80 106 3.0 6.0 0.00 0.00 0.00 81 1020.9
20260903015305 80 163 2.0 7.0 0.00 0.00 0.00 81 1020.7
20260903014759 80 115 5.0 6.0 0.00 0.00 0.00 81 1020.7
20260903014258 80 61 4.0 7.0 0.00 0.00 0.00 81 1020.7
20260903013759 80 81 4.0 7.0 0.00 0.00 0.00 81 1020.6
20260903013257 80 57 5.0 7.0 0.00 0.00 0.00 81 1020.4
20260903012756 80 52 4.0 6.0 0.00 0.00 0.00 81 1020.4
20260903012251 80 61 4.0 7.0 0.00 0.00 0.00 81 1020.4
20260903011751 80 357 2.0 6.0 0.00 0.00 0.00 81 1020.2
20260903011250 80 76 4.0 6.0 0.00 0.00 0.00 81 1020.3
20260903010746 80 48 4.0 6.0 0.00 0.00 0.00 81 1020.3
20260903010241 80 65 3.0 6.0 0.00 0.00 0.00 81 1020.3
20260903005740 80 69 4.0 7.0 0.00 0.00 0.00 81 1020.3
20260903005235 80 83 6.0 8.0 0.00 0.00 0.00 80 1020.2
20260903004730 80 52 4.0 7.0 0.00 0.00 0.00 80 1020.2
20260903004226 80 78 4.0 7.0 0.00 0.00 0.00 79 1020.1
20260903003721 80 48 4.0 7.0 0.00 0.00 0.00 79 1019.8
20260903003217 80 48 5.0 8.0 0.00 0.00 0.00 78 1020.2
20260903002712 80 112 4.0 8.0 0.00 0.00 0.00 79 1020.4
20260903002211 80 86 4.0 7.0 0.00 0.00 0.00 78 1020.1
20260903001707 80 41 6.0 8.0 0.00 0.00 0.00 78 1020.2
20260903001206 80 120 4.0 9.0 0.00 0.00 0.00 78 1020.1
20260903000702 80 87 5.0 7.0 0.00 0.00 0.00 78 1020.1
20260903000204 80 115 7.0 9.0 0.00 0.00 0.00 78 1019.9
20260902235700 80 72 5.0 9.0 0.00 0.00 0.00 78 1020.0
20260902235156 80 81 6.0 8.0 0.00 0.00 0.00 78 1019.7
20260902234655 80 66 6.0 9.0 0.00 0.00 0.00 78 1019.9
20260902234154 80 77 6.0 8.0 0.00 0.00 0.00 78 1019.5
20260902233649 81 78 3.0 10.0 0.00 0.00 0.00 79 1019.8
20260902233149 80 84 6.0 9.0 0.00 0.00 0.00 79 1019.6
20260902232648 81 65 8.0 10.0 0.00 0.00 0.00 80 1019.8
20260902232147 81 71 6.0 9.0 0.00 0.00 0.00 81 1019.6
20260902231641 81 72 5.0 7.0 0.00 0.00 0.00 81 1019.7
20260902231136 80 47 3.0 8.0 0.00 0.00 0.00 82 1019.6
20260902230631 80 39 5.0 8.0 0.00 0.00 0.00 82 1019.6
20260902230130 80 62 4.0 4.0 0.00 0.00 0.00 83 1019.4
20260902225625 80 135 2.0 3.0 0.00 0.00 0.00 83 1019.6
20260902225124 80 179 2.0 3.0 0.00 0.00 0.00 83 1019.4
20260902224623 80 108 4.0 4.0 0.00 0.00 0.00 83 1019.4
20260902224119 80 71 3.0 6.0 0.00 0.00 0.00 83 1019.6
20260902223616 80 129 3.0 6.0 0.00 0.00 0.00 82 1019.5
20260902223114 81 171 4.0 7.0 0.00 0.00 0.00 81 1019.6
20260902222613 82 189 4.0 8.0 0.00 0.00 0.00 79 1019.5
20260902222112 83 198 6.0 10.0 0.00 0.00 0.00 78 1019.5
20260902221608 83 95 6.0 9.0 0.00 0.00 0.00 77 1019.5
20260902221108 83 77 5.0 9.0 0.00 0.00 0.00 77 1019.5
20260902220603 84 119 8.0 10.0 0.00 0.00 0.00 77 1019.6
20260902220058 84 255 4.0 9.0 0.00 0.00 0.00 76 1019.6
20260902215554 84 113 5.0 8.0 0.00 0.00 0.00 75 1019.5
20260902215049 84 127 6.0 13.0 0.00 0.00 0.00 74 1019.4
20260902214544 84 114 9.0 11.0 0.00 0.00 0.00 72 1019.5
20260902214043 85 114 5.0 9.0 0.00 0.00 0.00 72 1019.3
20260902213539 85 113 7.0 9.0 0.00 0.00 0.00 71 1019.4
20260902213038 85 84 4.0 7.0 0.00 0.00 0.00 71 1019.3
20260902212534 85 85 6.0 8.0 0.00 0.00 0.00 70 1019.4
20260902212029 85 192 1.0 4.0 0.00 0.00 0.00 70 1019.6
20260902211525 85 289 3.0 8.0 0.00 0.00 0.00 71 1019.5
20260902211020 85 69 4.0 10.0 0.00 0.00 0.00 71 1019.7
20260902210520 85 13 4.0 9.0 0.00 0.00 0.00 71 1019.8
20260902210019 85 81 4.0 13.0 0.00 0.00 0.00 71 1019.8
20260902205514 85 68 3.0 7.0 0.00 0.00 0.00 71 1019.8
20260902205009 85 96 8.0 9.0 0.00 0.00 0.00 72 1019.8
20260902204509 85 98 11.0 13.0 0.00 0.00 0.00 71 1020.0
20260902204004 85 72 7.0 14.0 0.00 0.00 0.00 72 1019.9
20260902203500 85 84 4.0 8.0 0.00 0.00 0.00 72 1019.9
20260902202958 85 85 4.0 7.0 0.00 0.00 0.00 72 1019.7
20260902202454 85 99 3.0 7.0 0.00 0.00 0.00 71 1019.7
20260902201951 85 60 4.0 9.0 0.00 0.00 0.00 72 1019.8
20260902201446 84 42 2.0 3.0 0.00 0.00 0.00 74 1019.9
20260902200946 83 54 2.0 4.0 0.00 0.00 0.00 74 1019.8
20260902200441 82 69 3.0 4.0 0.00 0.00 0.00 75 1019.9
20260902195936 82 281 1.0 6.0 0.00 0.00 0.00 76 1019.9
20260902195432 81 8 6.0 7.0 0.00 0.00 0.00 76 1020.3
20260902194932 81 24 5.0 7.0 0.00 0.00 0.00 76 1020.3
20260902194426 81 8 5.0 6.0 0.00 0.00 0.00 76 1020.3
20260902193920 81 7 5.0 7.0 0.00 0.00 0.00 76 1020.2
20260902193417 82 359 4.0 6.0 0.00 0.00 0.00 75 1020.5
20260902192915 82 222 1.0 4.0 0.00 0.00 0.00 77 1020.4
20260902192414 82 65 1.0 3.0 0.00 0.00 0.00 77 1020.4
20260902191913 82 59 3.0 4.0 0.00 0.00 0.00 77 1020.3
20260902191409 82 55 3.0 6.0 0.00 0.00 0.00 77 1020.4
20260902190904 82 315 2.0 3.0 0.00 0.00 0.00 76 1020.3
20260902190404 82 54 3.0 3.0 0.00 0.00 0.00 76 1020.4
20260902185900 82 226 1.0 1.0 0.00 0.00 0.00 77 1020.6
20260902185356 82 46 4.0 6.0 0.00 0.00 0.00 76 1020.7
20260902184851 83 107 3.0 6.0 0.00 0.00 0.00 77 1021.0
20260902184346 82 290 2.0 6.0 0.00 0.00 0.00 77 1020.7
20260902183842 82 305 1.0 2.0 0.00 0.00 0.00 76 1020.7
20260902183338 83 246 0.0 4.0 0.00 0.00 0.00 75 1020.7
20260902182834 83 125 4.0 4.0 0.00 0.00 0.00 76 1020.9
20260902182330 83 125 4.0 4.0 0.00 0.00 0.00 76 1020.7
20260902181826 83 84 2.0 2.0 0.00 0.00 0.00 75 1020.9
20260902181321 83 84 2.0 2.0 0.00 0.00 0.00 75 1020.6
20260902180815 83 98 3.0 4.0 0.00 0.00 0.00 75 1020.6
20260902180311 83 72 4.0 8.0 0.00 0.00 0.00 74 1020.8
20260902175806 83 59 2.0 4.0 0.00 0.00 0.00 74 1020.4
20260902175307 82 99 5.0 7.0 0.00 0.00 0.00 74 1020.7
20260902174757 84 17 8.0 8.0 0.00 0.00 0.00 72 1020.5
20260902174253 84 84 7.0 9.0 0.00 0.00 0.00 74 1020.7
20260902173748 83 82 3.0 8.0 0.00 0.00 0.00 74 1020.6
20260902173243 83 59 5.0 8.0 0.00 0.00 0.00 74 1020.6
20260902172738 83 90 4.0 7.0 0.00 0.00 0.00 74 1021.0
20260902172237 84 126 5.0 9.0 0.00 0.00 0.00 75 1021.1
20260902171732 84 77 9.0 11.0 0.00 0.00 0.00 75 1021.2
20260902171227 84 74 7.0 14.0 0.00 0.00 0.00 75 1021.4
20260902170724 84 102 11.0 13.0 0.00 0.00 0.00 74 1021.3
20260902170219 84 99 11.0 15.0 0.00 0.00 0.00 74 1021.2
20260902165714 84 197 5.0 9.0 0.00 0.00 0.00 75 1021.2
20260902165209 84 146 10.0 14.0 0.00 0.00 0.00 73 1021.3
20260902164708 85 128 7.0 13.0 0.00 0.00 0.00 72 1021.3
20260902164203 86 135 8.0 13.0 0.00 0.00 0.00 71 1021.1
20260902163658 86 131 8.0 11.0 0.00 0.00 0.00 70 1021.2
20260902163157 88 115 11.0 17.0 0.00 0.00 0.00 67 1021.0
20260902162655 91 165 12.0 17.0 0.00 0.00 0.00 64 1021.2
20260902162150 90 95 14.0 17.0 0.00 0.00 0.00 64 1021.5
20260902161645 91 151 11.0 13.0 0.00 0.00 0.00 62 1021.5
20260902161141 91 109 9.0 14.0 0.00 0.00 0.00 62 1021.7
20260902160638 91 157 7.0 10.0 0.00 0.00 0.00 62 1021.5
20260902160132 90 133 8.0 11.0 0.00 0.00 0.00 63 1021.6
20260902155630 91 118 14.0 21.0 0.00 0.00 0.00 59 1021.6
20260902155129 91 106 9.0 16.0 0.00 0.00 0.00 58 1021.7
20260902154624 91 148 12.0 18.0 0.00 0.00 0.00 59 1021.7
20260902154119 89 95 6.0 18.0 0.00 0.00 0.00 62 1021.9
20260902153619 90 112 13.0 16.0 0.00 0.00 0.00 59 1022.1
20260902153114 90 137 7.0 13.0 0.00 0.00 0.00 62 1021.9
20260902152610 90 126 10.0 16.0 0.00 0.00 0.00 62 1021.9
20260902152105 89 128 12.0 17.0 0.00 0.00 0.00 60 1021.8
20260902151601 92 107 13.0 18.0 0.00 0.00 0.00 60 1022.0
20260902151100 90 58 9.0 21.0 0.00 0.00 0.00 61 1022.0
20260902150555 90 137 9.0 16.0 0.00 0.00 0.00 61 1022.3
20260902150051 91 97 11.0 15.0 0.00 0.00 0.00 59 1022.2
20260902145540 91 233 7.0 14.0 0.00 0.00 0.00 59 1022.3
20260902145040 91 121 12.0 17.0 0.00 0.00 0.00 57 1022.4
20260902144537 91 104 11.0 17.0 0.00 0.00 0.00 59 1022.5
20260902144032 93 153 9.0 15.0 0.00 0.00 0.00 55 1022.4
20260902143531 92 38 8.0 13.0 0.00 0.00 0.00 55 1022.4
20260902143027 92 118 11.0 16.0 0.00 0.00 0.00 56 1022.2
20260902142522 91 129 8.0 14.0 0.00 0.00 0.00 60 1022.3
20260902142018 91 147 10.0 13.0 0.00 0.00 0.00 60 1022.5
20260902141519 90 102 11.0 21.0 0.00 0.00 0.00 59 1022.1
20260902141014 90 136 10.0 16.0 0.00 0.00 0.00 59 1022.3
20260902140514 91 39 11.0 15.0 0.00 0.00 0.00 58 1022.3
20260902140009 90 97 10.0 14.0 0.00 0.00 0.00 60 1022.2
20260902135503 90 113 11.0 17.0 0.00 0.00 0.00 61 1022.2
20260902135003 89 141 10.0 13.0 0.00 0.00 0.00 62 1022.3
20260902134500 90 91 11.0 16.0 0.00 0.00 0.00 60 1022.2
20260902133959 90 112 9.0 11.0 0.00 0.00 0.00 61 1022.3
20260902133454 90 78 10.0 14.0 0.00 0.00 0.00 61 1022.3
20260902132949 89 103 9.0 13.0 0.00 0.00 0.00 62 1022.2
20260902132444 88 242 2.0 8.0 0.00 0.00 0.00 65 1022.4
20260902131939 89 100 8.0 13.0 0.00 0.00 0.00 64 1022.1
20260902131435 88 123 7.0 11.0 0.00 0.00 0.00 62 1022.3
20260902130935 88 106 11.0 13.0 0.00 0.00 0.00 64 1022.4
20260902130432 88 103 10.0 13.0 0.00 0.00 0.00 63 1022.2
20260902125931 89 155 5.0 11.0 0.00 0.00 0.00 63 1022.1
20260902125427 88 90 4.0 10.0 0.00 0.00 0.00 64 1022.2
20260902124923 89 106 8.0 14.0 0.00 0.00 0.00 62 1022.2
20260902124420 87 115 9.0 11.0 0.00 0.00 0.00 64 1022.1
20260902123920 87 119 7.0 14.0 0.00 0.00 0.00 64 1022.0
20260902123416 87 119 7.0 13.0 0.00 0.00 0.00 65 1022.1
20260902122914 87 87 9.0 13.0 0.00 0.00 0.00 65 1021.8
20260902122410 86 147 7.0 8.0 0.00 0.00 0.00 66 1022.0
20260902121906 86 112 11.0 15.0 0.00 0.00 0.00 66 1021.9
20260902121401 86 92 14.0 15.0 0.00 0.00 0.00 65 1021.8
20260902120855 86 118 9.0 14.0 0.00 0.00 0.00 65 1021.5
20260902120353 86 122 7.0 8.0 0.00 0.00 0.00 65 1021.6
20260902115852 86 88 8.0 11.0 0.00 0.00 0.00 65 1021.4
20260902115348 85 118 7.0 8.0 0.00 0.00 0.00 67 1021.5
20260902114844 85 100 9.0 11.0 0.00 0.00 0.00 67 1021.4
20260902114340 84 100 9.0 10.0 0.00 0.00 0.00 68 1021.3
20260902113839 84 66 9.0 11.0 0.00 0.00 0.00 69 1021.3
20260902113335 84 154 8.0 13.0 0.00 0.00 0.00 70 1021.2
20260902112834 83 104 5.0 7.0 0.00 0.00 0.00 71 1021.3
20260902112331 83 113 5.0 10.0 0.00 0.00 0.00 71 1021.2
20260902111826 83 47 3.0 4.0 0.00 0.00 0.00 72 1020.9
20260902111323 83 63 7.0 8.0 0.00 0.00 0.00 71 1020.9
20260902110818 82 109 3.0 9.0 0.00 0.00 0.00 72 1020.8
20260902110314 82 106 8.0 13.0 0.00 0.00 0.00 72 1020.9
20260902105814 82 81 6.0 9.0 0.00 0.00 0.00 73 1020.9
20260902105309 81 52 8.0 11.0 0.00 0.00 0.00 74 1020.8
20260902104804 81 69 6.0 11.0 0.00 0.00 0.00 75 1021.0
20260902104301 81 66 9.0 11.0 0.00 0.00 0.00 75 1020.8
20260902103755 80 79 6.0 10.0 0.00 0.00 0.00 75 1020.6
20260902103254 80 62 8.0 9.0 0.00 0.00 0.00 76 1020.6
20260902102750 80 63 6.0 10.0 0.00 0.00 0.00 76 1020.7
20260902102247 80 65 5.0 8.0 0.00 0.00 0.00 76 1020.8
20260902101742 80 85 9.0 10.0 0.00 0.00 0.00 76 1020.6
20260902101237 80 87 8.0 9.0 0.00 0.00 0.00 76 1020.6
20260902100736 80 90 9.0 10.0 0.00 0.00 0.00 76 1020.5
20260902100232 80 73 7.0 10.0 0.00 0.00 0.00 76 1020.6
20260902095731 80 68 6.0 13.0 0.00 0.00 0.00 76 1020.6
20260902095226 80 70 4.0 11.0 0.00 0.00 0.00 76 1020.5
20260902094720 80 70 5.0 9.0 0.00 0.00 0.00 76 1020.4
20260902094217 80 92 7.0 9.0 0.00 0.00 0.00 76 1020.4